This demonstration page uses our WeatherBlox Daily Observations layout. Learn more.

Left ArrowRight Arrow

Hourly Observations for July 8, 2021

Temp ( °F °C ) Dew Point ( °F °C ) Humidity (%) Winds ( mph kmh ) Pressure ( in mb ) Visibility ( mi km ) Precip ( " mm )
12:15 am 00:15 Clear 68 20 63 17.3 85 85 SE 8 13 29.93 1014 10 16 N/A
12:35 am 00:35 Clear 68 20 63 17.2 84 84 SE 10 17 29.92 1013 10 16 N/A
12:55 am 00:55 Clear 67 19.6 63 17.1 86 86 SE 12 19 29.93 1013 10 16 N/A
1:15 am 01:15 Clear 66 18.9 63 17 89 89 SSE 6 9 29.93 1014 10 16 N/A
1:35 am 01:35 Clear 66 19 63 17 88 88 SE 7 11 29.92 1013 10 16 N/A
1:55 am 01:55 Clear 66 18.8 62 16.8 88 88 SE 6 9 29.92 1013 10 16 N/A
2:15 am 02:15 Clear 65 18.6 62 16.7 89 89 SSE 7 11 29.92 1013 10 16 N/A
2:35 am 02:35 Clear 65 18.4 62 16.7 90 90 SE 7 11 29.94 1014 10 16 N/A
2:55 am 02:55 Clear 64 18 62 16.6 92 92 SSE 6 9 29.94 1014 10 16 N/A
3:15 am 03:15 Partly Cloudy 64 17.7 62 16.5 93 93 SSE 6 9 29.94 1014 10 16 N/A
3:35 am 03:35 Partly Cloudy 64 17.5 62 16.4 93 93 SSE 6 9 29.93 1014 10 16 N/A
3:55 am 03:55 Clear 63 17.3 61 16.2 93 93 SSE 5 7 29.94 1014 7 11 N/A
4:15 am 04:15 Clear 63 17 61 16.1 94 94 SSE 5 7 29.94 1014 7 11 N/A
4:35 am 04:35 Clear 63 17.1 61 16.1 94 94 SSE 7 11 29.93 1013 7 11 N/A
4:55 am 04:55 Clear 63 17 61 16.1 94 94 SSE 8 13 29.93 1013 7 11 N/A
5:15 am 05:15 Clear 62 16.7 61 16 96 96 SSE 8 13 29.92 1013 7 11 N/A
5:35 am 05:35 Clear 62 16.9 61 16.1 95 95 S 8 13 29.92 1013 7 11 N/A
5:55 am 05:55 Clear 63 17.1 61 16.2 94 94 SSE 12 19 29.92 1013 10 16 N/A
6:15 am 06:15 Clear 63 17.4 62 16.4 94 94 SSE 12 19 29.91 1013 10 16 N/A
6:35 am 06:35 Sunny 64 17.5 62 16.5 94 94 S 12 19 29.91 1013 7 11 N/A
6:55 am 06:55 Sunny 64 17.6 62 16.5 93 93 S 10 17 29.91 1013 10 16 N/A
7:15 am 07:15 Sunny 64 17.8 62 16.6 93 93 S 12 19 29.90 1013 10 16 N/A
7:35 am 07:35 Sunny 65 18.3 62 16.8 91 91 S 15 24 29.90 1012 10 16 N/A
7:55 am 07:55 Sunny 66 18.7 62 16.9 89 89 S 15 24 29.90 1013 10 16 N/A
8:15 am 08:15 Sunny 66 19.1 63 17 88 88 SSE 10 17 29.91 1013 10 16 N/A
8:35 am 08:35 Sunny 68 19.9 64 17.5 86 86 SSE 12 19 29.89 1012 10 16 N/A
8:55 am 08:55 Sunny 69 20.5 64 17.7 84 84 SSE 14 22 29.90 1012 10 16 N/A
9:15 am 09:15 Partly Cloudy 70 21 64 17.8 82 82 S 13 20 29.89 1012 10 16 N/A
9:35 am 09:35 Partly Cloudy 71 21.5 64 18 81 81 S 15 24 29.89 1012 10 16 N/A
9:55 am 09:55 Sunny 72 22.2 65 18.4 79 79 S 15 24 29.87 1012 10 16 N/A
10:15 am 10:15 Sunny 74 23.1 66 18.8 77 77 SSE 17 28 29.86 1011 10 16 N/A
10:35 am 10:35 Sunny 75 23.8 66 19.1 75 75 SSE 17 28 29.84 1010 10 16 N/A
10:55 am 10:55 Sunny 76 24.4 67 19.2 73 73 S 13 20 29.84 1010 10 16 N/A
11:15 am 11:15 Sunny 77 25 67 19.3 71 71 S 15 24 29.81 1009 10 16 N/A
11:35 am 11:35 Sunny 78 25.7 67 19.7 70 70 S 17 28 29.80 1009 10 16 N/A
11:55 am 11:55 Sunny 80 26.6 68 19.9 67 67 S 21 33 29.79 1009 10 16 N/A
12:15 pm 12:15 Sunny 81 27.1 69 20.3 66 66 SSE 20 31 29.77 1008 10 16 N/A
12:35 pm 12:35 Sunny 82 27.7 69 20.3 64 64 S 20 31 29.77 1008 10 16 N/A
12:55 pm 12:55 Sunny 83 28.3 68 20.2 62 62 SSE 20 31 29.76 1008 10 16 N/A
1:15 pm 13:15 Sunny 83 28.6 68 19.9 59 59 SSE 20 31 29.75 1007 10 16 N/A
1:35 pm 13:35 Sunny 85 29.3 68 20 57 57 SSE 18 30 29.75 1007 10 16 N/A
1:55 pm 13:55 Sunny 86 30 67 19.7 54 54 SSE 21 33 29.73 1007 10 16 N/A
2:15 pm 14:15 Sunny 87 30.5 66 19.1 51 51 S 21 33 29.73 1007 10 16 N/A
2:35 pm 14:35 Sunny 87 30.8 65 18.5 48 48 SSE 23 37 29.71 1006 10 16 N/A
2:55 pm 14:55 Sunny 88 31.2 65 18.4 46 46 SSE 20 31 29.70 1006 10 16 N/A
3:15 pm 15:15 Sunny 89 31.6 65 18.2 45 45 S 21 33 29.70 1006 10 16 N/A
3:35 pm 15:35 Sunny 90 32.1 64 17.9 43 43 S 21 33 29.69 1006 10 16 N/A
3:55 pm 15:55 Sunny 91 32.6 65 18.1 42 42 S 18 30 29.69 1005 10 16 N/A
4:15 pm 16:15 Sunny 91 32.8 64 18 41 41 S 20 31 29.68 1005 10 16 N/A
4:35 pm 16:35 Sunny 91 33 65 18.2 41 41 S 18 30 29.67 1005 10 16 N/A
4:55 pm 16:55 Sunny 92 33.5 61 15.9 35 35 SSW 22 35 29.66 1004 10 16 N/A
5:15 pm 17:15 Sunny 92 33.5 59 14.9 33 33 S 18 30 29.65 1004 10 16 N/A
5:35 pm 17:35 Sunny 92 33.5 60 15.7 34 34 S 16 26 29.65 1004 10 16 N/A
5:55 pm 17:55 Sunny 92 33.5 60 15.6 34 34 S 21 33 29.64 1004 10 16 N/A
6:15 pm 18:15 Sunny 92 33.1 60 15.7 35 35 S 17 28 29.65 1004 10 16 N/A
6:35 pm 18:35 Sunny 91 33 62 16.4 37 37 S 14 22 29.64 1004 10 16 N/A
6:55 pm 18:55 Sunny 91 32.7 61 16.2 37 37 S 15 24 29.64 1004 10 16 N/A
7:15 pm 19:15 Sunny 89 31.9 62 16.4 39 39 S 16 26 29.65 1004 10 16 N/A
7:35 pm 19:35 Sunny 88 31.2 63 17.4 44 44 S 14 22 29.65 1004 10 16 N/A
7:55 pm 19:55 Sunny 86 30 64 17.8 48 48 SSE 12 19 29.66 1004 10 16 N/A
8:15 pm 20:15 Sunny 85 29.7 62 16.5 45 45 S 9 15 29.66 1004 10 16 N/A
8:35 pm 20:35 Sunny 85 29.4 62 16.7 46 46 S 10 17 29.66 1005 10 16 N/A
8:55 pm 20:55 Sunny 82 27.9 63 17 52 52 SSE 9 15 29.68 1005 10 16 N/A
9:15 pm 21:15 Clear 81 27 63 17 54 54 SSE 9 15 29.69 1006 10 16 N/A
9:35 pm 21:35 Clear 79 26.2 63 17.3 58 58 SSE 8 13 29.71 1006 10 16 N/A
9:55 pm 21:55 Clear 79 25.9 63 17.1 58 58 S 10 17 29.71 1006 10 16 N/A
10:15 pm 22:15 Clear 80 26.4 61 16.2 54 54 SSE 12 19 29.72 1006 10 16 N/A
10:35 pm 22:35 Clear 80 26.4 60 15.5 51 51 SSE 13 20 29.72 1006 7 11 N/A
10:55 pm 22:55 Clear 79 26.2 59 15.2 51 51 S 16 26 29.71 1006 10 16 N/A
11:15 pm 23:15 Clear 80 26.5 59 15.1 50 50 S 17 28 29.71 1006 10 16 N/A
11:35 pm 23:35 Clear 80 26.8 59 15.1 49 49 S 21 33 29.71 1006 10 16 N/A
11:55 pm 23:55 Clear 80 26.7 59 15.2 49 49 S 21 33 29.71 1006 10 16 N/A

Powered by AerisWeather